Weather History for KDEN - May, 2013

Change the Weather History Date:

Friday, May 17, 2013

  Actual Average Record
Temperature  
Mean Temperature 71 °F 58 °F  
Max Temperature 88 °F 72 °F 91 °F (1964)
Min Temperature 53 °F 43 °F 29 °F (1957)
Degree Days  
Heating Degree Days 0 8  
Month to date heating degree days 192 181  
Since 1 July heating degree days 5994 5912  
Cooling Degree Days 6 1  
Month to date cooling degree days 25 2  
Year to date cooling degree days 25 3  
Growing Degree Days 22 (Base 50)    
Moisture  
Dew Point 34 °F    
Average Humidity 41    
Maximum Humidity 72    
Minimum Humidity 9    
Precipitation  
Precipitation 0.00 in 0.06 in 1.77 in (2000)
Month to date precipitation 0.65 1.12  
Year to date precipitation 5.07 4.53  
Snow  
Snow 0.00 in - - ()
Month to date snowfall 3.4  
Since 1 July snowfall 78.4  
Snow Depth 0.00 in    
Sea Level Pressure  
Sea Level Pressure 29.65 in    
Wind  
Wind Speed 11 mph (SSW)    
Max Wind Speed 24 mph    
Max Gust Speed 33 mph    
Visibility 10 miles    
Events      
T = Trace of Precipitation, MM = Missing Value Source: NWS Daily Summary

Daily Weather History Graph

Daily Weather History Graph

Search for Another Location

Airport or City:

Trip Planner

Search our weather history database for the weather conditions in past years. The results will help you decide how hot, cold, wet, or windy it might be!

Date:

Astronomy

May. 17, 2013 Rise Set
Actual Time 5:41 AM MDT 8:08 PM MDT
Civil Twilight 5:10 AM MDT 8:39 PM MDT
Nautical Twilight 4:32 AM MDT 9:17 PM MDT
Astronomical Twilight 3:50 AM MDT 10:00 PM MDT
Moon 12:16 PM MDT (5/17) 1:02 AM MDT (5/17)
Length of Visible Light 15h 28m
Length of Day
14h 27m
Waxing Crescent, 46% of the Moon is Illuminated
May 17
Waxing Crescent
May 17
First Quarter
May 24
Full
May 31
Last Quarter
Jun 8
New

Hourly Weather History & Observations

Time (MDT) Temp. Dew Point Humidity Pressure Visibility Wind Dir Wind Speed Gust Speed Precip Events Conditions
12:53 AM 57.0 °F 46.0 °F 67% 29.71 in 10.0 mi East 8.1 mph - N/A   Scattered Clouds
1:53 AM 55.9 °F 46.0 °F 69% 29.70 in 10.0 mi South 9.2 mph - N/A   Scattered Clouds
2:53 AM 57.9 °F 45.0 °F 62% 29.69 in 10.0 mi South 11.5 mph - N/A   Partly Cloudy
3:53 AM 55.0 °F 45.0 °F 69% 29.69 in 10.0 mi South 12.7 mph - N/A   Scattered Clouds
4:53 AM 55.0 °F 45.0 °F 69% 29.69 in 10.0 mi SW 10.4 mph - N/A   Scattered Clouds
5:53 AM 55.4 °F 44.6 °F 67% 29.90 in 10.0 mi SW 12.7 mph - N/A   Mostly Cloudy
6:53 AM 57.0 °F 44.1 °F 62% 29.72 in 10.0 mi WSW 8.1 mph - N/A   Mostly Cloudy
7:53 AM 62.1 °F 43.0 °F 50% 29.72 in 10.0 mi WSW 6.9 mph - N/A   Scattered Clouds
8:53 AM 69.1 °F 41.0 °F 36% 29.71 in 10.0 mi WSW 11.5 mph - N/A   Scattered Clouds
9:53 AM 75.9 °F 37.0 °F 24% 29.69 in 10.0 mi West 12.7 mph - N/A   Scattered Clouds
10:53 AM 81.0 °F 27.0 °F 14% 29.68 in 10.0 mi SW 13.8 mph - N/A   Partly Cloudy
11:53 AM 82.0 °F 21.9 °F 11% 29.67 in 10.0 mi SSW 9.2 mph 19.6 mph N/A   Partly Cloudy
12:53 PM 82.4 °F 26.6 °F 13% 29.87 in 10.0 mi SW 10.4 mph - N/A   Partly Cloudy
1:53 PM 84.0 °F 19.9 °F 9% 29.62 in 10.0 mi South 8.1 mph 20.7 mph N/A   Partly Cloudy
2:53 PM 84.9 °F 24.1 °F 11% 29.59 in 10.0 mi SSW 10.4 mph - N/A   Scattered Clouds
3:53 PM 86.0 °F 39.0 °F 19% 29.56 in 10.0 mi SE 23.0 mph 29.9 mph N/A   Scattered Clouds
4:53 PM 84.9 °F 36.0 °F 17% 29.54 in 10.0 mi SE 17.3 mph - N/A   Scattered Clouds
5:53 PM 81.0 °F 28.9 °F 15% 29.54 in 10.0 mi ESE 4.6 mph - N/A   Mostly Cloudy
6:53 PM 77.0 °F 33.1 °F 20% 29.55 in 10.0 mi South 11.5 mph - N/A   Mostly Cloudy
7:53 PM 75.0 °F 23.0 °F 14% 29.55 in 10.0 mi South 18.4 mph - N/A   Mostly Cloudy
8:53 PM 72.0 °F 19.9 °F 14% 29.56 in 10.0 mi SSW 13.8 mph - N/A   Mostly Cloudy
9:53 PM 71.1 °F 35.1 °F 27% 29.57 in 10.0 mi West 8.1 mph - N/A   Mostly Cloudy
10:53 PM 68.0 °F 26.1 °F 21% 29.58 in 10.0 mi West 6.9 mph - N/A   Partly Cloudy
11:53 PM 66.9 °F 25.0 °F 21% 29.59 in 10.0 mi West 6.9 mph - N/A   Partly Cloudy